Quillayute, WA

8:21 AM PDT on May 25, 2018 (GMT -0700)
Quillayute

Weather History for KUIL - January, 2014

Change the Weather History Date:

Monday, January 6, 2014

  Actual Average Record
Temperature  
Mean Temperature 44 °F 41 °F  
Max Temperature 54 °F 46 °F 57 °F (2003)
Min Temperature 34 °F 36 °F 10 °F (1982)
Degree Days  
Heating Degree Days 21 24  
Month to date heating degree days 141 144  
Since 1 July heating degree days 2094 2622  
Cooling Degree Days 0 0  
Month to date cooling degree days 0 0  
Year to date cooling degree days 0 0  
Moisture  
Dew Point 37 °F    
Average Humidity 67    
Maximum Humidity 86    
Minimum Humidity 48    
Precipitation  
Precipitation T in 0.48 in 3.95 in (1997)
Month to date precipitation 1.40 2.81  
Year to date precipitation 1.40 2.81  
Sea Level Pressure  
Sea Level Pressure 30.13 in    
Wind  
Wind Speed 6 mph (SE)    
Max Wind Speed 13 mph    
Max Gust Speed 21 mph    
Visibility 6 miles    
Events Rain    
T = Trace of Precipitation, MM = Missing Value Source: NWS Daily Summary

Daily Weather History Graph

Daily Weather History Graph

Search for Another Location

Airport or City:

Astronomy

Jan. 06, 2014 Rise Set
Actual Time 8:07 AM PST 4:41 PM PST
Civil Twilight 7:31 AM PST 5:17 PM PST
Nautical Twilight 6:52 AM PST 5:56 PM PST
Astronomical Twilight 6:14 AM PST 6:34 PM PST
Moon 10:56 AM PST (1/6) 11:53 PM PST (1/6)
Length of Visible Light 9h 46m
Length of Day
8h 34m
Waxing Crescent, 36% of the Moon is Illuminated
Jan 6
Waxing Crescent
Jan 7
First Quarter
Jan 15
Full
Jan 23
Last Quarter
Jan 30
New

Hourly Weather History & Observations

Time (PST) Temp. Windchill Dew Point Humidity Pressure Visibility Wind Dir Wind Speed Gust Speed Precip Events Conditions
12:53 AM 39.9 °F 35.1 °F 30.9 °F 70% 30.21 in 8.0 mi ENE 6.9 mph - N/A   Clear
1:53 AM 39.9 °F 36.7 °F 30.0 °F 68% 30.20 in 8.0 mi ESE 4.6 mph - N/A   Clear
2:53 AM 37.9 °F 34.4 °F 30.9 °F 76% 30.19 in 8.0 mi ESE 4.6 mph - N/A   Clear
3:53 AM 37.0 °F 32.4 °F 28.9 °F 73% 30.19 in 8.0 mi NE 5.8 mph - N/A   Clear
4:53 AM 36.0 °F 32.1 °F 30.0 °F 79% 30.18 in 8.0 mi East 4.6 mph - N/A   Clear
5:53 AM 37.9 °F 32.7 °F 30.9 °F 76% 30.16 in 8.0 mi East 6.9 mph - N/A   Clear
6:53 AM 37.0 °F 33.3 °F 30.9 °F 79% 30.15 in 8.0 mi East 4.6 mph - N/A   Clear
7:53 AM 37.0 °F 33.3 °F 30.9 °F 79% 30.15 in 8.0 mi East 4.6 mph - N/A   Clear
8:53 AM 37.9 °F 32.7 °F 32.0 °F 79% 30.15 in 6.0 mi East 6.9 mph - N/A   Haze
9:53 AM 39.9 °F 36.7 °F 32.0 °F 73% 30.15 in 6.0 mi East 4.6 mph - N/A   Haze
10:53 AM 43.0 °F 39.5 °F 33.1 °F 68% 30.15 in 7.0 mi East 5.8 mph - N/A   Clear
11:53 AM 46.9 °F - 35.1 °F 63% 30.14 in 7.0 mi Variable 3.5 mph - N/A   Clear
12:53 PM 51.1 °F - 32.0 °F 48% 30.13 in 7.0 mi SSW 8.1 mph - N/A   Clear
1:53 PM 51.1 °F - 33.1 °F 50% 30.11 in 6.0 mi South 8.1 mph 19.6 mph N/A   Haze
2:53 PM 51.1 °F - 39.9 °F 66% 30.12 in 5.0 mi Variable 5.8 mph - N/A   Haze
3:53 PM 51.1 °F - 42.1 °F 71% 30.12 in 5.0 mi SSE 4.6 mph - N/A   Haze
4:19 PM 51.1 °F - 42.1 °F 71% 30.11 in 5.0 mi SE 6.9 mph - N/A   Haze
4:53 PM 50.0 °F - 42.1 °F 74% 30.11 in 7.0 mi SSE 5.8 mph - N/A   Overcast
5:10 PM 50.0 °F - 42.1 °F 74% 30.10 in 7.0 mi SE 5.8 mph - N/A   Overcast
5:53 PM 50.0 °F - 42.1 °F 74% 30.10 in 7.0 mi SE 5.8 mph - N/A   Overcast
6:53 PM 50.0 °F - 42.1 °F 74% 30.09 in 7.0 mi SE 6.9 mph - N/A   Overcast
7:53 PM 50.0 °F - 42.1 °F 74% 30.09 in 7.0 mi Variable 3.5 mph - N/A   Overcast
8:53 PM 50.0 °F - 42.1 °F 74% 30.09 in 7.0 mi South 8.1 mph - N/A   Overcast
9:35 PM 48.9 °F - 43.0 °F 80% 30.09 in 2.5 mi SSE 8.1 mph - 0.00 in Rain Light Rain
9:53 PM 48.0 °F - 44.1 °F 86% 30.09 in 3.0 mi SE 9.2 mph - 0.00 in   Overcast
10:53 PM 48.9 °F - 43.0 °F 80% 30.08 in 7.0 mi SE 6.9 mph - N/A   Overcast
11:25 PM 48.0 °F - 43.0 °F 83% 30.07 in 2.5 mi SSE 6.9 mph - 0.00 in Rain Light Rain
11:46 PM 48.0 °F - 44.1 °F 86% 30.07 in 4.0 mi SE 6.9 mph - 0.00 in   Overcast
11:53 PM 48.0 °F - 44.1 °F 86% 30.07 in 4.0 mi SSE 6.9 mph - 0.00 in   Overcast